This is the latest recevied weather packets stored in our database for station/object JS1SZZ-13. If no packets are shown the sender has not sent any weather packets the latest 10 day(s).
| Time | Temp. | Humidity | Pressure | Rain* | Wind** | Luminosity | Snow |
|---|---|---|---|---|---|---|---|
| 1777685701 | 21.67° C | 22% | 1004 hPa | 0 mm | - | - | - |
| 1777684799 | 21.11° C | 26% | 1004 hPa | 0 mm | - | - | - |
| 1777683901 | 20.56° C | 27% | 1004 hPa | 0 mm | - | - | - |
| 1777683000 | 20.56° C | 29% | 1003.7 hPa | 0 mm | - | - | - |
| 1777682100 | 19.44° C | 28% | 1003.7 hPa | 0 mm | - | - | - |
| 1777681200 | 20.56° C | 30% | 1003.5 hPa | 0 mm | - | - | - |
| 1777680301 | 19.44° C | 29% | 1003.2 hPa | 0 mm | - | - | - |
| 1777679400 | 19.44° C | 28% | 1003.1 hPa | 0 mm | - | - | - |
| 1777678500 | 19.44° C | 30% | 1003.1 hPa | 0 mm | - | - | - |
| 1777677599 | 19.44° C | 34% | 1002.7 hPa | 0 mm | - | - | - |
| 1777676700 | 18.89° C | 31% | 1002.5 hPa | 0 mm | - | - | - |
| 1777675799 | 18.33° C | 45% | 1002.4 hPa | 0 mm | - | - | - |
| 1777674901 | 17.78° C | 44% | 1002.2 hPa | 0 mm | - | - | - |
| 1777674001 | 16.11° C | 49% | 1001.9 hPa | 0 mm | - | - | - |
| 1777673100 | 15.56° C | 58% | 1001.8 hPa | 0 mm | - | - | - |
| 1777672200 | 14.44° C | 61% | 1001.6 hPa | 0 mm | - | - | - |
| 1777671300 | 13.89° C | 59% | 1001.1 hPa | 0 mm | - | - | - |
| 1777670399 | 13.33° C | 58% | 1000.9 hPa | 0 mm | - | - | - |
| 1777669499 | 13.89° C | 48% | 1000.7 hPa | 0 mm | - | - | - |
| 1777668601 | 12.78° C | 48% | 1000.4 hPa | 0 mm | - | - | - |
| 1777667700 | 11.67° C | 52% | 999.8 hPa | 0 mm | - | - | - |
| 1777666800 | 11.11° C | 57% | 999.4 hPa | 0 mm | - | - | - |
| 1777665899 | 10.56° C | 69% | 999.1 hPa | 0 mm | - | - | - |
| 1777665001 | 8.33° C | 94% | 998.5 hPa | 0 mm | - | - | - |
| 1777664100 | 8.33° C | 96% | 998.8 hPa | 0 mm | - | - | - |
* Rain latest hour (hover to see other rain measurements)
** Current wind speed in m/s (hover to see current wind gust speed)